Wind_Speed
19 18 17 16 17 17 16 15 16 15 15 13 12 11 10 10 11 10 10 10 10 9 8 9 9 8 7 7 8 8 8 8 8 9 10 10 9 9 9 8 7 6
21 20 19 18 18 17 17 16 16 16 16 14 13 13 12 12 12 12 12 12 11 10 10 10 10 9 8 8 8 8 8 8 9 9 10 10 10 10 10 9 8 6
22 21 21 20 19 18 17 17 16 16 15 15 14 14 14 13 13 13 14 13 12 12 11 10 9 9 9 9 9 9 9 9 9 10 10 10 10 11 10 10 9 8
22 22 21 20 19 17 17 17 17 16 15 15 15 15 15 15 15 15 15 15 14 13 12 10 9 10 10 10 10 10 10 10 10 10 10 10 10 10 10 10 9 9
23 22 21 19 19 18 17 18 18 17 16 16 15 16 16 15 16 16 16 16 15 14 12 10 10 11 11 11 11 11 11 11 11 10 9 9 9 10 10 10 10 9
23 22 21 19 18 18 18 19 18 17 16 16 16 16 16 16 15 16 16 16 16 14 12 11 11 12 12 12 11 12 12 12 12 11 10 10 9 9 10 10 10 10
23 22 21 19 18 18 18 19 19 18 17 16 15 15 16 15 15 15 15 15 14 13 11 11 12 13 13 12 11 11 12 12 12 12 11 11 10 10 10 10 10 11
22 21 21 19 19 18 18 19 19 18 17 15 16 18 18 18 18 18 17 15 14 13 11 11 12 12 13 12 11 11 12 12 13 13 12 11 11 10 9 9 10 10
22 21 20 20 19 19 19 18 18 17 16 17 19 19 17 15 16 17 16 15 15 13 12 12 12 12 12 12 12 11 12 13 13 13 12 11 11 10 9 9 9 10
23 22 21 21 20 19 19 17 16 16 16 17 17 15 13 12 13 14 14 15 15 13 13 13 12 12 11 12 12 11 12 13 13 13 12 12 11 11 10 9 9 9
23 22 22 21 20 20 19 17 15 16 16 15 14 13 13 13 13 13 13 14 14 13 12 12 12 12 11 11 11 10 11 12 12 12 12 11 11 11 11 11 10 10
23 22 22 22 21 20 19 17 16 16 16 15 14 14 14 14 14 14 14 13 13 13 13 13 13 12 11 11 10 9 10 11 11 11 9 9 10 12 13 13 11 11
23 23 22 21 21 20 19 18 17 17 16 15 15 15 14 14 15 15 13 13 13 13 13 14 14 14 12 12 11 10 10 11 11 11 11 11 12 12 13 12 11 11
23 22 22 21 20 19 19 18 18 17 17 17 15 15 15 15 15 14 13 13 14 14 14 13 14 14 13 13 13 13 12 12 12 13 13 13 12 11 11 11 10 10
22 22 21 19 19 18 19 19 19 18 17 17 15 14 15 15 14 14 13 13 15 16 15 14 14 15 15 15 15 15 14 13 14 14 14 14 13 12 12 11 10 10
20 20 20 18 18 18 18 20 20 19 18 17 15 14 14 14 14 15 14 14 15 16 16 16 15 15 16 16 16 15 15 13 14 15 15 15 15 14 13 12 11 11
21 21 19 18 18 18 18 19 19 19 18 17 15 15 14 14 15 16 15 14 15 16 16 16 16 15 15 15 14 14 13 13 13 14 14 15 15 14 13 12 11 10
23 23 21 20 19 19 19 19 19 19 18 17 17 17 16 15 15 15 16 16 16 16 15 15 15 15 14 13 13 13 13 13 13 14 14 15 15 14 13 13 12 11
24 25 24 22 21 20 20 20 20 20 19 18 18 18 17 17 16 15 15 16 17 16 15 14 14 14 13 13 13 12 13 14 14 15 15 15 15 15 14 14 13 13
25 27 27 25 23 23 22 21 20 19 19 18 18 18 18 18 18 16 16 17 17 16 15 15 15 15 14 14 13 13 14 15 16 16 17 17 17 17 17 17 16 16
27 29 29 28 25 24 23 22 20 19 18 19 21 21 20 19 19 18 17 17 18 17 17 17 17 16 16 15 15 15 15 16 17 18 18 19 19 19 20 20 19 19
27 30 30 29 28 27 25 23 21 20 20 20 22 23 22 20 19 18 18 18 18 18 19 18 18 17 17 17 17 17 17 17 18 19 20 20 21 21 21 22 22 22
27 30 30 30 30 28 25 24 23 22 21 21 22 23 23 22 20 19 18 19 19 19 19 20 19 19 19 19 20 20 20 20 20 21 22 22 22 22 22 23 24 24
27 30 31 29 27 25 23 22 22 21 21 21 22 23 23 23 22 20 20 19 19 20 20 20 21 21 21 21 21 21 22 22 22 22 22 23 24 24 23 23 24 24
28 30 31 29 27 26 23 22 21 19 20 21 22 23 23 21 19 18 18 19 19 19 20 20 20 21 21 22 22 22 22 21 22 22 22 23 24 24 23 24 24 25
27 27 27 26 25 24 23 22 20 19 19 19 19 20 21 19 15 15 17 17 18 19 19 19 20 20 21 22 22 22 21 20 20 21 21 22 23 23 23 24 26 26
Wind_Direction
211 213 216 217 216 214 213 212 213 217 219 219 220 222 225 225 221 217 216 220 225 224 225 229 231 230 222 222 225 222 218 219 225 228 225 225 229 233 237 240 236 234
212 214 216 218 217 217 218 216 215 217 219 220 222 224 225 225 222 220 219 222 226 227 232 235 235 231 228 231 231 230 226 220 224 230 227 226 229 233 241 244 239 234
211 213 214 216 217 218 219 220 219 219 220 220 221 224 223 222 223 221 218 221 225 226 228 233 235 232 232 236 237 237 235 228 227 231 229 227 227 231 241 245 242 242
210 213 214 214 216 217 220 222 222 221 221 219 221 223 222 221 223 221 218 218 221 224 227 231 236 235 233 236 237 234 234 234 232 233 232 232 232 232 240 243 239 241
211 213 213 213 215 215 217 221 222 222 222 221 222 223 223 221 221 222 219 218 220 222 223 229 237 238 236 238 237 232 234 237 237 237 235 234 237 238 239 240 238 241
211 212 212 213 215 215 216 219 221 223 223 223 224 226 227 224 222 223 222 220 221 223 223 227 232 235 237 238 237 234 236 240 240 240 238 234 233 234 237 241 243 247
210 211 212 213 215 217 218 220 223 225 225 224 226 228 230 228 226 227 227 227 228 226 227 231 231 233 237 238 236 235 237 239 240 240 241 238 233 233 238 245 250 256
210 211 212 213 216 217 219 221 223 225 225 224 226 227 225 224 223 222 222 227 235 236 231 230 231 232 234 236 236 236 236 236 238 240 241 244 242 241 243 248 254 259
208 211 212 213 215 216 218 220 220 222 225 226 227 229 227 227 230 230 225 223 229 238 234 228 229 228 229 234 235 235 236 235 236 238 241 246 246 242 242 247 255 260
207 208 210 213 214 216 218 217 216 223 229 229 230 232 231 231 234 236 235 226 219 225 231 228 225 224 226 230 230 230 234 234 235 237 240 244 246 248 249 253 259 263
208 208 209 212 212 214 216 214 215 224 228 227 229 228 224 223 224 226 233 231 217 213 224 226 220 219 222 225 225 226 230 232 232 236 239 243 248 252 253 252 256 262
210 210 211 212 212 213 214 210 211 220 223 223 225 224 219 219 222 223 225 225 218 212 215 217 217 218 219 223 227 231 236 234 229 230 235 240 242 245 246 247 254 263
211 212 213 214 215 215 212 208 210 218 222 222 222 221 220 220 223 226 224 219 216 214 213 214 218 222 224 228 232 236 243 242 232 227 232 241 243 244 247 251 255 262
213 215 215 215 217 217 213 211 213 217 220 223 222 223 226 228 228 228 226 221 214 213 216 219 223 227 231 235 238 238 242 246 242 237 242 250 250 248 252 254 256 262
214 217 217 216 218 218 215 215 217 218 219 221 221 223 228 231 230 229 229 226 219 215 220 226 231 235 237 240 243 241 240 244 246 246 252 260 260 258 262 265 265 266
214 216 215 214 214 212 212 216 218 217 219 220 219 222 227 230 231 230 230 226 219 218 223 229 233 237 240 241 241 240 240 243 248 251 255 260 264 266 268 267 265 267
216 217 215 214 213 209 210 216 218 216 218 221 223 226 229 231 232 230 229 226 221 219 223 229 233 236 238 237 235 236 239 243 249 253 254 256 261 263 262 260 263 266
217 218 216 216 218 216 217 222 224 222 223 226 229 231 230 231 231 228 226 225 223 221 222 227 233 236 235 234 234 236 242 246 249 252 252 252 253 252 253 257 259 260
213 217 218 218 219 220 223 227 231 230 230 231 231 230 228 229 230 227 224 224 225 226 226 228 233 236 235 234 236 239 245 249 250 249 248 247 246 246 249 253 255 255
211 217 221 221 222 225 227 230 233 234 237 239 236 230 227 227 228 227 227 227 228 230 231 232 235 237 238 238 242 246 249 250 249 248 246 244 244 246 250 252 254 256
215 220 225 225 225 227 228 230 231 232 235 238 238 234 229 225 225 226 227 229 230 232 234 236 237 239 240 243 247 249 251 252 252 251 249 247 248 250 254 257 258 259
220 224 228 227 226 226 225 227 229 230 230 230 230 230 230 226 223 223 224 227 230 232 235 238 238 240 242 244 247 248 249 251 252 253 253 253 253 254 256 259 261 261
225 227 227 225 224 224 227 231 233 236 240 237 228 224 224 224 223 222 222 224 227 230 233 236 239 241 243 244 246 249 251 252 253 255 256 256 256 256 257 258 259 260
227 229 229 228 230 235 240 241 238 237 240 238 230 227 226 222 217 218 221 223 227 229 232 235 239 242 245 247 249 251 254 256 257 256 256 257 258 257 255 255 256 257
226 230 234 237 240 244 245 241 236 235 235 234 234 237 238 230 218 217 224 228 230 233 235 237 241 244 248 251 253 254 255 256 257 257 256 255 254 251 252 254 254 254
225 231 238 242 244 245 242 236 231 228 228 229 230 233 239 241 236 231 232 233 235 238 239 240 243 246 249 252 254 256 258 258 260 261 260 258 253 248 249 251 250 251
Height
1580 1581 1582 1583 1584 1585 1586 1587 1588 1589 1590 1591 1592 1593 1594 1595 1596 1597 1597 1598 1599 1600 1601 1602 1603 1603 1604 1604 1605 1606 1606 1607 1607 1608 1609 1609 1610 1610 1610 1610 1611 1611
1579 1580 1582 1583 1584 1585 1586 1587 1588 1589 1590 1591 1592 1593 1594 1595 1596 1597 1597 1598 1599 1600 1601 1602 1603 1603 1604 1604 1605 1606 1606 1607 1607 1608 1608 1608 1609 1610 1610 1610 1610 1610
1579 1580 1581 1582 1583 1584 1586 1587 1588 1589 1590 1591 1592 1593 1594 1595 1596 1596 1597 1598 1599 1600 1600 1601 1602 1603 1604 1604 1605 1605 1606 1606 1607 1607 1607 1608 1608 1609 1609 1610 1610 1610
1577 1579 1580 1581 1583 1584 1585 1586 1587 1588 1589 1590 1591 1593 1594 1594 1595 1596 1597 1598 1598 1599 1600 1601 1601 1602 1603 1604 1604 1605 1605 1606 1606 1607 1607 1607 1608 1608 1609 1609 1609 1609
1577 1578 1579 1581 1582 1583 1584 1585 1586 1587 1589 1590 1591 1592 1593 1594 1595 1596 1597 1597 1598 1599 1599 1600 1601 1601 1602 1603 1603 1604 1605 1605 1606 1606 1607 1607 1607 1608 1608 1608 1608 1609
1576 1577 1578 1580 1581 1582 1583 1584 1586 1587 1588 1590 1591 1592 1593 1594 1595 1596 1596 1597 1597 1598 1598 1599 1600 1600 1601 1602 1603 1603 1604 1605 1605 1606 1606 1607 1607 1607 1607 1607 1608 1608
1575 1576 1577 1579 1580 1581 1582 1583 1585 1586 1588 1590 1592 1593 1594 1595 1596 1597 1597 1598 1598 1598 1598 1598 1599 1600 1600 1601 1602 1603 1603 1604 1604 1605 1606 1606 1606 1607 1607 1607 1607 1607
1574 1575 1576 1578 1579 1580 1581 1582 1584 1586 1588 1591 1592 1593 1593 1593 1594 1595 1596 1597 1598 1598 1598 1598 1599 1599 1600 1600 1601 1602 1602 1603 1603 1604 1605 1605 1606 1606 1607 1607 1606 1606
1573 1574 1575 1577 1577 1579 1580 1582 1584 1586 1588 1589 1590 1591 1591 1593 1594 1594 1595 1595 1596 1597 1597 1597 1598 1599 1599 1600 1600 1601 1602 1602 1602 1603 1604 1605 1605 1606 1606 1606 1606 1606
1571 1573 1574 1575 1576 1578 1579 1581 1584 1585 1586 1587 1589 1590 1592 1593 1594 1594 1594 1594 1594 1595 1596 1596 1597 1597 1598 1599 1599 1600 1601 1601 1602 1602 1603 1604 1604 1605 1605 1605 1605 1604
1570 1571 1572 1573 1575 1576 1578 1580 1583 1583 1584 1586 1588 1589 1590 1591 1592 1592 1592 1593 1593 1594 1595 1596 1596 1596 1597 1597 1598 1599 1600 1600 1601 1601 1602 1603 1604 1604 1603 1603 1603 1603
1569 1570 1571 1572 1574 1575 1577 1579 1581 1581 1582 1584 1586 1587 1589 1589 1590 1590 1591 1592 1593 1593 1593 1594 1595 1595 1596 1596 1597 1598 1599 1599 1600 1600 1601 1601 1601 1601 1601 1601 1602 1602
1568 1569 1570 1571 1573 1574 1576 1578 1579 1580 1581 1582 1584 1585 1586 1587 1587 1588 1589 1590 1591 1592 1592 1592 1593 1594 1595 1595 1596 1597 1597 1598 1598 1599 1599 1599 1599 1599 1600 1600 1601 1601
1567 1568 1569 1571 1572 1574 1576 1577 1577 1578 1580 1581 1582 1583 1584 1585 1586 1587 1588 1589 1590 1590 1591 1591 1591 1593 1593 1594 1595 1595 1596 1596 1597 1598 1598 1597 1597 1598 1599 1599 1599 1599
1567 1568 1569 1570 1571 1573 1574 1575 1576 1577 1578 1580 1581 1582 1583 1584 1584 1585 1586 1587 1588 1589 1589 1589 1590 1591 1592 1592 1593 1594 1594 1595 1595 1596 1596 1596 1596 1597 1597 1597 1597 1597
1566 1567 1569 1570 1570 1571 1573 1573 1575 1576 1577 1578 1579 1580 1581 1582 1583 1584 1585 1586 1586 1587 1587 1588 1589 1590 1590 1591 1592 1592 1593 1593 1594 1594 1594 1595 1595 1595 1596 1596 1596 1596
1565 1566 1568 1569 1570 1571 1572 1572 1573 1574 1576 1577 1578 1579 1580 1581 1582 1582 1583 1584 1585 1586 1586 1587 1588 1588 1589 1590 1590 1591 1591 1592 1592 1593 1593 1594 1594 1594 1594 1594 1595 1595
1562 1564 1566 1567 1568 1570 1571 1571 1572 1573 1574 1576 1576 1578 1579 1579 1580 1581 1582 1583 1584 1584 1585 1585 1586 1587 1588 1589 1589 1590 1590 1591 1591 1592 1592 1592 1592 1592 1592 1592 1593 1593
1559 1561 1563 1565 1566 1568 1569 1570 1571 1572 1573 1574 1575 1576 1577 1578 1579 1579 1580 1581 1582 1583 1584 1584 1585 1586 1586 1587 1588 1588 1589 1589 1590 1590 1590 1591 1591 1591 1591 1591 1591 1591
1556 1558 1560 1562 1564 1565 1566 1568 1569 1571 1572 1573 1574 1575 1576 1576 1577 1578 1578 1579 1580 1581 1582 1583 1584 1584 1585 1586 1586 1587 1587 1588 1588 1588 1588 1589 1589 1589 1589 1590 1590 1590
1554 1556 1558 1561 1562 1563 1564 1565 1567 1569 1571 1572 1573 1574 1574 1574 1575 1575 1576 1577 1578 1579 1580 1581 1582 1583 1583 1584 1585 1585 1586 1586 1586 1586 1586 1587 1587 1587 1587 1588 1588 1588
1552 1554 1557 1559 1560 1560 1561 1563 1564 1566 1568 1570 1572 1573 1573 1573 1573 1573 1574 1575 1576 1577 1578 1579 1580 1581 1582 1582 1583 1583 1584 1585 1585 1585 1585 1585 1585 1585 1585 1586 1586 1586
1551 1552 1554 1555 1556 1558 1559 1560 1562 1563 1565 1568 1571 1573 1572 1571 1571 1571 1572 1573 1574 1575 1576 1577 1578 1579 1580 1580 1581 1581 1582 1582 1583 1583 1583 1583 1583 1583 1583 1583 1583 1583
1550 1551 1551 1553 1556 1558 1558 1559 1560 1561 1562 1564 1568 1572 1573 1571 1569 1569 1570 1570 1571 1573 1574 1575 1576 1577 1578 1578 1579 1579 1580 1580 1580 1580 1581 1581 1580 1580 1580 1580 1580 1580
1549 1549 1550 1553 1555 1556 1556 1557 1558 1559 1560 1562 1565 1568 1570 1570 1568 1567 1568 1569 1570 1571 1572 1573 1574 1575 1576 1576 1576 1577 1577 1577 1577 1577 1578 1578 1577 1576 1577 1577 1577 1577
1547 1548 1549 1551 1552 1553 1553 1554 1555 1557 1558 1559 1562 1564 1566 1567 1566 1566 1567 1567 1568 1569 1569 1571 1572 1572 1573 1573 1574 1574 1574 1575 1575 1575 1575 1575 1574 1574 1575 1574 1574 1574